Theta_e
341 336 335 332 330 329 329 330 334 339 343 346 345 345 343 340 338 337 336 335 334 332 330 328 326 326 328 330 330 330 329 327 327 329 329 329 328 328 329 330 331 332 332 333 334 335 332 329 330 329 327 326 325 325 325 326 327 328 330 331 330 330 332 334 336 335 335 336 337 336 337 337 336 334 332 330 331 330 330 330 330 331 330 329 329
339 335 334 330 329 328 328 329 331 336 342 346 346 345 344 340 338 337 336 335 334 332 329 328 326 326 328 330 330 330 330 330 329 329 330 331 331 330 330 332 333 333 334 335 335 337 334 329 329 329 328 328 327 326 326 327 327 327 328 328 328 329 331 334 336 336 335 336 337 337 337 336 335 334 332 331 330 330 329 330 329 329 328 327 326
337 335 332 329 329 328 328 329 330 334 339 345 346 345 344 341 339 337 337 335 333 332 330 327 326 326 328 331 330 331 331 331 331 331 332 332 333 334 336 336 335 334 335 335 336 338 335 332 331 328 327 328 327 326 326 326 325 326 327 328 328 329 331 333 333 333 334 335 336 336 336 335 334 333 332 331 331 330 330 330 328 328 327 326 325
337 333 331 330 329 328 328 328 330 333 336 341 343 344 344 342 340 338 337 336 334 332 330 328 327 327 329 331 331 332 332 332 332 333 334 335 336 337 339 340 338 335 336 337 336 337 336 335 333 328 326 328 327 326 326 325 326 327 328 328 328 329 330 331 332 332 333 334 335 335 334 333 333 333 332 332 331 330 330 330 329 328 327 326 327
336 333 332 330 329 328 327 328 330 333 335 339 342 342 343 343 341 339 337 337 335 332 330 329 328 328 330 331 332 333 333 332 333 334 336 337 338 338 339 340 339 335 334 336 336 337 336 336 333 326 326 331 330 326 325 326 327 328 328 329 329 329 328 329 329 331 331 332 332 332 332 332 331 332 332 332 332 330 330 330 330 329 327 327 327
335 333 333 331 330 328 327 329 331 333 334 338 343 342 343 344 342 340 338 337 335 333 331 329 329 329 330 331 332 333 333 333 333 334 335 337 337 338 339 338 338 335 332 334 336 337 336 336 332 323 323 331 332 326 326 328 329 330 331 331 331 331 329 328 327 327 327 329 331 330 331 331 331 332 332 332 332 331 330 329 329 328 327 327 327
335 334 334 333 331 328 327 328 330 333 333 337 342 343 344 343 343 341 339 338 336 333 331 330 329 330 331 332 332 333 333 334 334 334 334 336 338 337 339 338 336 336 333 334 337 338 337 337 331 322 322 328 329 326 328 329 330 331 332 333 334 334 333 331 329 327 325 328 331 332 332 332 332 332 332 332 332 331 330 329 329 328 328 328 328
336 336 334 333 331 329 327 327 330 332 333 337 341 344 344 344 343 342 340 339 336 333 332 331 330 331 331 332 332 333 333 334 335 334 333 336 339 338 339 339 337 336 334 333 337 339 338 338 332 322 323 327 328 328 330 330 330 331 333 334 335 336 334 332 331 329 327 327 330 332 333 332 332 332 332 332 332 332 331 329 327 327 327 327 327
337 335 333 333 331 329 328 329 330 332 334 336 339 343 344 344 343 342 340 340 337 334 333 332 332 332 332 332 333 333 334 334 335 334 333 336 339 339 339 339 337 336 335 333 336 339 339 338 332 323 324 329 330 330 330 331 331 332 333 334 335 335 335 333 331 330 328 327 328 330 332 333 333 333 333 332 332 331 330 328 326 326 327 327 327
337 335 334 333 330 328 328 330 332 333 334 336 338 341 343 343 343 343 342 341 338 334 333 333 333 332 332 332 332 334 335 334 335 335 334 337 338 339 339 339 338 336 334 333 335 337 338 338 333 326 324 327 331 331 330 331 331 331 332 332 333 333 334 333 332 329 327 325 326 328 330 332 332 333 332 331 330 329 328 327 326 327 328 327 327
336 335 334 332 329 328 329 331 333 335 336 337 339 341 342 342 344 344 342 342 339 334 334 335 334 333 332 332 332 334 335 335 335 335 335 337 338 339 339 338 337 335 333 333 334 335 336 337 333 328 325 324 327 329 330 331 331 331 332 332 332 332 334 333 331 330 328 327 326 327 328 329 332 333 331 330 328 327 327 326 327 327 327 326 326
337 335 333 331 329 329 331 332 334 336 338 339 342 343 343 343 344 344 343 342 340 337 335 335 334 333 333 332 332 333 335 335 335 336 336 338 339 338 338 337 336 334 333 332 332 333 335 337 333 329 327 324 322 323 325 328 328 329 331 332 331 332 335 333 331 332 331 330 329 328 327 327 331 332 331 330 328 324 323 326 327 327 326 326 326
338 335 332 331 330 329 331 333 334 336 339 340 342 343 343 344 344 344 343 342 341 339 337 336 334 334 334 333 332 333 334 334 335 336 336 338 338 338 338 337 335 334 333 332 331 333 335 336 335 330 328 326 323 321 321 323 323 324 328 329 331 333 335 333 332 332 331 331 331 329 326 328 331 332 331 330 328 325 324 328 328 327 327 326 324
339 335 333 333 334 332 331 332 333 334 338 339 341 342 343 345 344 344 343 343 342 340 339 337 335 335 334 333 333 333 334 334 335 336 336 337 338 337 338 337 335 334 334 333 331 333 335 336 335 331 329 328 326 322 320 321 321 322 326 328 331 333 334 333 333 332 332 333 332 327 325 329 331 331 331 330 328 327 328 329 327 326 326 325 322
340 336 334 335 337 335 331 332 331 332 335 336 337 339 341 344 344 344 343 343 342 341 339 338 336 335 334 333 333 333 334 335 335 336 336 337 338 338 338 337 335 334 333 331 330 332 334 336 335 332 331 328 327 323 319 319 319 324 328 330 331 331 332 334 333 332 333 332 330 327 325 326 329 330 331 330 329 328 328 328 326 325 324 321 319
340 337 334 334 335 335 332 330 330 329 330 333 336 337 339 342 343 342 343 343 342 341 339 339 337 334 333 333 334 333 333 334 334 334 335 335 336 336 337 336 334 333 332 330 329 330 332 334 334 334 332 329 327 323 320 319 321 327 330 330 329 327 330 333 333 332 332 331 330 327 324 324 326 329 331 330 328 327 326 325 326 324 321 318 316
340 337 336 334 334 333 331 329 329 329 328 331 334 334 336 341 342 341 343 343 341 340 340 340 337 334 333 333 333 333 334 333 333 334 333 332 333 334 334 334 334 332 332 331 330 330 330 331 332 333 333 330 328 324 323 323 326 329 329 329 327 327 330 333 334 333 332 331 329 325 322 326 327 328 330 329 328 327 325 326 326 324 322 319 316
340 338 337 336 335 333 331 330 331 331 329 330 332 333 334 338 341 341 342 342 340 340 340 339 337 334 334 333 332 333 334 334 333 332 330 329 330 330 330 331 332 331 330 331 331 330 329 329 330 332 333 332 328 325 324 324 327 327 328 328 326 328 331 332 334 333 332 329 327 324 323 326 327 328 329 328 327 327 327 326 325 323 322 321 318
339 339 338 338 337 334 332 332 334 334 331 329 330 332 334 336 339 340 341 341 340 340 340 339 338 335 334 332 332 333 334 335 333 331 329 328 327 328 328 328 331 331 328 330 332 330 328 326 328 331 331 331 328 325 325 324 324 325 327 327 325 329 331 331 333 332 331 329 327 327 326 325 326 328 328 328 327 327 327 325 324 324 322 322 321
339 339 339 339 338 335 333 334 335 334 332 330 330 330 332 334 337 338 339 340 340 339 338 338 338 336 334 333 333 334 335 335 333 331 330 329 327 327 327 328 332 332 329 331 332 329 327 325 327 330 329 327 326 325 324 324 323 323 326 326 326 330 331 331 332 332 331 329 330 329 327 325 324 327 328 328 327 326 326 325 325 325 321 320 318
339 338 338 338 337 335 334 335 335 334 333 332 332 330 329 329 333 336 337 338 339 339 338 338 339 337 335 335 335 335 336 335 334 333 332 331 329 328 327 327 331 333 331 331 331 329 327 325 327 329 326 326 325 325 323 323 322 322 326 326 328 330 330 332 332 332 331 330 330 328 327 325 324 325 327 327 326 326 324 325 326 324 321 316 310
338 338 337 336 336 336 337 338 338 337 334 333 333 332 329 327 328 332 334 335 336 338 338 338 340 339 337 337 336 335 336 335 335 335 334 334 332 330 328 327 330 332 331 331 330 329 327 326 327 326 325 325 325 326 324 323 321 322 326 327 329 331 330 332 332 332 331 330 328 327 326 325 325 323 324 325 325 325 323 324 326 325 323 316 306
339 339 338 337 338 339 340 340 340 338 337 336 335 333 331 329 326 328 330 330 333 336 337 339 339 339 338 338 337 335 335 334 335 336 335 335 334 332 329 328 329 329 329 330 329 328 327 326 327 326 325 324 323 324 323 322 321 322 326 326 328 330 329 331 331 331 330 328 327 327 326 325 325 324 323 323 321 324 324 324 326 324 323 319 311
340 339 339 339 340 340 340 340 340 339 338 338 337 335 332 331 328 327 327 328 331 331 333 337 337 337 338 338 337 335 335 335 334 336 337 336 334 333 331 329 328 325 325 327 327 327 326 326 326 325 324 324 322 320 319 320 320 322 326 325 328 330 329 331 331 330 328 327 328 327 325 325 326 325 324 322 318 323 325 323 324 323 322 321 318
338 339 340 340 339 339 340 340 340 340 339 338 338 336 333 332 330 328 327 328 328 328 331 335 336 337 338 338 337 335 336 334 332 334 336 336 334 333 331 329 326 322 320 322 325 326 326 326 326 324 325 326 325 323 323 321 318 321 325 323 327 331 329 330 330 329 328 328 328 325 326 325 326 326 325 323 319 321 325 323 324 323 322 322 321
329 335 339 339 338 338 338 339 339 339 338 338 338 335 335 335 334 331 330 329 328 329 332 336 337 338 338 337 336 337 336 333 332 333 334 337 336 333 331 327 325 320 317 320 323 323 324 325 325 325 326 327 328 328 329 326 318 317 321 322 326 331 330 330 329 328 329 329 327 327 327 326 325 324 324 323 321 322 324 323 324 323 322 323 323
321 326 330 333 335 336 336 337 337 338 338 338 338 337 338 339 337 336 334 331 330 332 335 336 337 337 337 337 336 338 337 335 335 334 333 337 335 333 331 326 324 320 317 319 320 321 322 323 324 325 325 327 329 330 331 328 319 317 323 325 328 332 332 331 329 328 330 329 329 329 328 326 325 323 323 322 321 323 324 323 325 323 320 322 323
319 321 323 325 328 328 328 330 333 336 337 337 338 338 338 338 338 339 337 334 332 334 337 337 336 336 336 336 336 336 336 336 336 335 333 335 335 334 331 326 325 323 318 319 319 321 322 322 324 325 325 326 328 330 331 330 322 323 330 331 331 331 332 331 328 329 330 330 330 329 328 327 326 323 320 321 322 324 326 325 325 323 319 318 321
317 318 319 321 322 323 323 323 327 333 335 336 337 338 337 337 338 338 338 336 335 336 337 337 336 335 335 335 335 335 335 335 336 336 334 334 334 333 331 327 327 326 322 320 319 320 322 323 324 325 326 326 327 329 330 331 328 326 330 331 331 330 331 331 328 329 330 330 331 329 329 328 327 324 320 322 323 324 326 326 325 324 321 314 314
315 316 316 317 318 320 322 322 325 331 333 333 334 334 334 334 336 337 337 336 335 336 336 337 336 335 335 335 335 335 336 337 336 336 336 335 335 333 331 328 328 328 326 323 321 321 322 323 323 325 326 326 327 328 328 331 331 328 327 328 330 330 330 330 329 330 330 330 330 329 329 329 327 325 323 323 324 324 325 326 324 323 323 317 313
315 316 317 317 318 319 320 321 326 330 329 329 329 329 328 327 328 330 334 337 336 336 335 335 336 335 336 336 336 336 337 338 337 336 336 336 335 333 332 330 330 330 328 326 325 326 327 327 325 325 327 328 328 329 329 329 332 331 328 327 328 329 330 329 330 330 330 330 330 330 330 329 328 326 326 325 325 325 325 327 325 322 325 323 319
315 316 316 317 318 319 320 322 325 327 326 326 327 326 326 325 323 321 325 331 332 333 336 335 335 335 336 336 336 336 337 338 338 337 336 336 336 334 333 332 331 331 330 329 328 329 331 332 330 329 328 330 331 331 330 329 331 331 330 329 327 329 330 329 329 330 330 330 330 331 330 329 328 326 326 326 325 325 325 328 327 323 325 325 323
315 316 316 317 317 318 320 321 323 324 324 324 324 325 325 324 323 321 321 324 323 324 329 332 333 333 335 335 335 336 337 337 337 336 336 335 335 335 335 334 333 333 331 332 331 330 331 332 332 332 331 331 332 333 332 331 331 331 330 330 329 329 331 330 330 329 330 330 330 331 331 330 329 327 326 327 326 325 325 327 328 325 326 326 325
316 316 316 317 316 316 318 320 321 322 322 323 323 323 323 322 322 323 323 323 322 321 320 324 330 332 333 332 330 331 334 336 337 336 336 335 335 335 335 335 334 334 333 333 333 331 330 331 331 332 332 332 332 333 332 330 330 330 329 331 331 330 331 331 330 330 330 330 330 330 330 331 330 328 327 327 326 325 324 326 328 326 326 326 325
316 317 317 317 315 314 316 318 319 320 321 321 321 322 321 320 321 323 324 323 324 323 321 321 325 327 327 327 327 328 330 333 335 336 336 336 335 335 335 335 335 335 334 333 333 333 331 330 331 331 332 332 332 333 331 328 328 330 329 330 331 330 331 331 331 330 330 330 330 330 330 331 331 330 329 328 327 326 325 325 326 326 326 326 324
316 317 316 316 315 313 314 317 317 318 319 318 320 320 318 318 320 320 321 323 323 323 323 321 320 322 322 323 324 325 325 327 331 334 335 335 335 335 335 336 336 336 335 334 334 335 334 333 332 332 332 332 332 332 330 327 328 329 329 329 330 331 331 330 331 331 331 331 330 330 330 331 331 331 330 329 328 326 325 324 325 325 325 326 324
316 315 316 315 315 313 312 315 316 316 317 316 316 314 314 317 319 318 317 320 320 319 321 322 322 324 325 324 323 322 324 327 331 334 335 335 335 335 335 336 336 336 335 336 335 335 335 334 332 331 331 332 332 332 330 327 329 329 329 329 329 330 330 330 330 330 331 331 331 331 331 331 331 331 331 330 329 327 326 325 325 324 323 324 324
314 314 315 315 315 313 310 312 314 315 316 314 313 312 313 316 318 316 314 315 318 320 322 323 325 326 326 326 325 324 325 329 331 332 333 334 335 335 335 335 335 335 335 335 336 336 334 333 331 331 331 331 331 332 331 329 329 330 329 329 329 329 329 329 329 329 331 331 331 331 331 331 331 331 331 331 330 328 327 326 326 324 323 323 324
314 314 315 315 314 310 308 309 311 312 314 314 314 315 316 317 317 314 313 315 318 321 323 324 325 325 325 325 327 327 327 327 329 330 330 330 332 334 335 333 331 333 335 334 335 334 332 332 332 333 332 331 331 331 332 331 329 329 330 330 330 329 328 328 328 328 328 329 330 331 331 331 331 331 331 331 330 329 328 327 327 326 324 323 324
315 315 315 315 312 308 308 310 311 312 314 316 317 317 318 319 318 315 314 316 316 317 321 324 324 324 324 324 325 327 328 327 328 328 328 327 326 327 329 325 321 326 332 333 334 335 334 333 334 333 333 333 332 331 332 333 331 329 330 330 330 330 329 327 327 327 327 327 328 330 330 331 331 331 331 331 331 330 328 328 327 327 326 324 323
315 315 315 315 311 307 309 312 313 315 315 317 318 318 319 319 318 316 315 314 312 312 315 317 317 318 321 322 322 323 324 325 327 327 327 327 325 325 325 321 319 322 327 329 330 332 334 336 335 334 333 332 332 331 331 333 333 331 332 331 330 330 329 328 327 326 327 327 327 328 329 330 331 331 331 331 330 330 329 328 328 327 327 325 324
315 315 315 315 311 309 309 311 314 317 317 317 318 318 319 319 317 316 315 312 309 308 310 312 312 312 316 320 320 318 318 319 320 321 322 323 324 325 325 324 325 326 329 329 327 328 330 333 334 334 333 333 333 332 332 332 331 332 332 331 331 330 329 328 327 326 325 326 327 327 328 329 330 330 330 331 330 330 329 328 328 327 327 326 326
315 315 315 315 313 311 310 311 314 317 318 318 318 319 317 315 314 314 313 311 310 310 311 314 315 314 314 316 318 317 317 316 317 319 320 320 322 324 325 325 326 327 329 329 329 329 329 329 330 330 331 332 334 333 334 333 331 332 332 333 334 332 330 328 327 326 325 325 325 325 326 327 328 329 329 330 330 330 330 329 328 328 327 327 326
316 315 315 315 315 313 310 312 314 316 319 318 319 319 315 312 311 312 312 312 312 313 314 315 316 316 315 315 316 317 316 314 316 319 320 321 321 323 324 324 325 325 326 327 328 328 329 329 329 329 329 329 331 330 332 334 332 332 332 333 333 331 333 331 326 326 326 325 325 323 324 326 327 328 328 329 330 330 330 329 328 328 327 327 327
316 316 315 315 316 314 310 312 315 317 319 317 317 316 312 311 312 312 313 314 315 315 316 316 317 316 316 316 317 316 314 314 316 317 318 320 320 321 322 323 324 324 324 324 325 325 326 327 328 330 330 330 330 329 330 332 332 331 331 333 332 333 337 333 327 328 327 325 326 324 323 326 327 327 328 328 330 330 330 329 328 328 327 327 327
316 316 315 315 315 314 311 311 314 318 318 316 314 312 312 312 313 314 315 316 317 316 315 315 316 316 315 316 315 313 314 315 316 316 317 318 319 320 320 321 323 324 324 323 323 324 324 324 325 327 329 330 331 331 331 330 330 330 330 331 331 334 336 332 332 334 331 327 327 326 326 326 326 327 327 327 329 330 330 329 328 328 328 327 327
316 315 315 315 315 315 314 312 313 317 316 314 313 312 312 311 311 313 314 315 315 314 313 314 314 315 314 314 313 313 315 315 315 316 316 318 319 319 319 319 321 322 322 323 322 322 322 322 322 323 324 326 329 331 331 329 330 331 330 329 329 330 331 331 333 336 335 334 330 328 329 328 327 327 326 327 327 329 329 328 328 327 327 327 327
316 315 315 315 315 316 316 314 315 317 316 315 314 313 313 311 311 313 314 315 313 311 312 312 311 311 312 312 312 314 316 316 316 317 316 317 318 319 319 319 319 320 320 321 322 321 321 321 321 322 321 322 325 327 329 329 329 329 330 330 330 331 330 329 330 331 334 337 333 330 330 328 328 327 327 328 327 329 329 327 327 327 327 327 327
316 315 315 315 315 316 316 317 317 317 317 317 315 315 314 311 312 314 315 315 313 309 310 310 308 309 311 314 314 314 316 317 317 316 316 316 316 316 316 316 316 317 317 317 318 318 319 320 320 320 321 320 321 323 325 326 328 328 329 329 330 331 331 329 328 328 329 332 334 333 330 327 328 328 328 328 328 328 329 328 327 327 327 327 327
316 316 316 315 316 317 317 319 319 318 317 317 315 317 315 312 314 316 316 316 311 308 310 310 308 308 310 314 315 315 316 316 316 317 316 314 312 311 310 309 309 310 310 310 311 313 317 318 318 318 319 319 319 320 321 321 323 326 328 329 330 330 331 330 329 329 328 328 331 332 328 327 329 328 327 329 328 328 328 327 327 327 327 327 327
317 317 317 317 317 318 318 319 320 319 318 317 316 317 315 313 316 318 318 317 313 309 311 311 309 309 309 312 315 316 315 314 315 315 314 312 309 307 305 305 305 305 305 305 307 310 314 316 316 316 316 317 318 318 319 319 320 321 323 326 329 330 330 330 329 329 329 328 328 329 327 327 327 327 327 328 328 328 328 327 327 326 327 327 326
Wind_Speed
16 16 14 13 13 14 15 15 16 17 16 16 15 14 14 15 16 15 16 17 17 15 14 15 16 17 17 17 18 19 21 21 21 20 19 19 19 18 18 18 17 17 17 16 15 15 15 15 15 15 16 16 16 16 15 16 18 19 19 19 20 22 25 26 25 23 21 18 17 18 18 18 17 17 16 18 19 19 19 18 18 18 18 17 17
20 18 15 14 13 13 14 14 15 16 16 16 16 15 14 15 15 15 16 17 17 16 14 14 15 16 16 16 17 18 19 20 20 19 18 18 17 17 17 17 17 17 16 16 15 15 15 16 16 17 17 18 18 18 18 19 19 19 19 20 22 23 24 24 24 24 21 18 17 18 18 17 16 16 16 17 17 18 18 17 17 17 17 16 16
22 19 16 14 13 13 13 13 14 15 16 16 16 15 14 15 15 15 16 17 17 16 14 14 15 15 14 15 16 17 18 19 19 18 17 16 16 16 16 16 16 16 16 16 16 15 16 16 16 17 18 18 19 19 19 19 19 19 20 21 22 23 22 22 23 23 21 18 18 17 17 17 16 15 16 17 17 17 17 16 15 16 16 16 16
22 20 17 15 13 12 13 13 13 13 15 16 16 15 15 15 15 15 15 16 17 16 15 15 15 14 13 14 15 16 17 18 18 18 17 16 16 16 16 16 15 16 15 15 16 15 16 16 16 17 19 19 19 20 20 20 21 21 22 22 22 22 22 22 22 22 21 20 19 18 18 18 18 17 17 16 16 17 16 16 15 16 15 15 15
23 20 17 15 13 13 12 13 13 13 14 15 16 15 16 15 15 15 15 16 16 16 15 15 15 14 13 12 14 14 15 16 17 17 16 15 15 15 15 16 15 15 15 15 15 14 16 16 16 18 19 18 18 20 21 22 24 25 25 24 24 24 23 22 21 20 20 20 18 18 17 17 18 17 17 16 16 16 16 15 15 15 15 15 14
23 19 17 15 13 13 12 13 13 14 13 14 16 16 17 16 16 15 15 16 16 16 14 14 15 14 13 12 13 13 14 14 15 16 15 14 14 14 14 15 14 13 14 14 14 14 15 16 16 19 19 17 18 21 24 26 27 27 27 26 25 24 24 22 21 19 18 18 17 18 18 17 19 17 16 16 15 15 14 14 14 14 14 14 13
21 18 16 14 14 13 12 12 13 14 14 14 16 17 17 17 17 16 16 16 16 16 14 14 14 14 13 12 12 12 13 13 14 14 14 14 13 14 14 14 13 13 13 13 13 13 14 15 17 20 20 19 20 24 27 27 27 28 27 26 24 23 22 20 19 18 17 17 18 18 18 17 17 17 15 15 14 14 14 13 13 13 13 13 13
20 18 16 15 14 13 12 13 13 14 14 15 16 17 17 17 17 17 17 17 17 17 15 14 13 13 13 12 12 12 12 12 12 13 14 13 13 13 14 14 13 13 13 13 13 12 13 15 18 21 22 22 23 25 26 26 26 26 26 25 23 21 20 18 17 16 15 16 17 18 18 17 16 16 16 15 14 13 13 12 12 12 12 12 12
20 17 16 15 14 13 13 13 14 14 15 16 16 17 17 17 17 17 17 17 18 18 16 14 12 13 13 11 11 11 11 11 12 13 13 13 13 13 14 14 13 13 13 12 13 12 12 15 18 21 22 23 23 23 24 23 23 22 22 21 19 18 17 17 15 14 14 15 16 15 16 16 16 16 16 14 14 13 12 11 11 12 11 11 11
20 17 16 15 14 14 13 14 15 15 15 16 16 16 16 17 17 17 17 17 19 18 17 15 13 12 12 11 10 10 10 11 11 12 13 13 12 12 13 13 13 13 12 12 12 11 12 14 17 20 20 21 21 20 21 20 19 18 18 17 15 13 12 15 16 14 15 15 13 12 13 15 16 15 14 13 12 11 11 11 12 12 11 11 10
21 18 16 15 15 14 15 15 15 15 15 15 15 15 15 16 16 17 16 17 18 18 17 15 14 12 12 11 9 10 10 11 11 11 12 13 12 12 12 12 12 12 11 11 11 10 11 14 16 17 18 18 19 18 17 17 17 16 15 15 13 10 10 15 17 15 15 13 11 10 11 13 15 13 12 11 11 11 11 12 12 11 10 10 10
21 18 16 15 15 14 15 15 15 15 15 15 14 14 14 15 15 15 16 17 18 18 17 15 14 12 12 11 9 10 10 10 11 10 11 12 13 12 12 11 11 10 10 11 10 9 10 13 15 15 16 16 17 15 15 14 14 13 13 12 12 11 12 17 17 16 14 11 10 9 9 11 13 12 11 10 10 10 11 12 12 11 10 10 10
22 19 17 16 16 15 16 16 16 15 14 14 13 13 12 14 16 15 15 17 18 17 17 15 13 12 12 11 9 10 10 9 10 10 10 11 12 11 12 11 10 9 10 11 10 9 10 12 14 15 15 14 14 14 14 12 12 12 12 11 12 12 14 19 17 15 13 10 9 8 9 11 12 11 10 10 10 11 12 12 11 10 10 9 9
23 19 17 16 15 15 15 15 16 16 14 14 13 13 11 13 15 14 14 17 18 17 16 15 13 12 12 10 9 10 10 10 10 10 10 11 11 11 11 11 10 10 10 10 9 9 9 11 14 15 14 13 12 13 13 12 12 13 12 12 13 13 14 18 17 14 12 9 8 8 10 12 12 11 11 10 10 11 12 11 11 10 9 9 9
23 20 18 16 15 14 14 14 14 15 15 15 14 13 12 12 13 13 14 16 17 17 16 15 13 12 11 10 10 9 10 10 10 10 10 11 11 11 11 10 10 10 9 9 9 8 8 10 14 14 13 13 11 11 13 12 13 13 13 12 13 12 11 14 16 14 12 10 9 8 8 11 12 11 11 10 9 11 12 11 10 10 9 9 9
22 20 18 16 15 14 14 14 14 14 14 15 14 13 13 12 13 12 14 17 16 16 16 15 13 12 11 11 10 10 10 10 10 10 11 11 10 10 10 10 10 10 9 8 8 7 7 9 12 13 13 12 10 10 12 12 13 13 12 12 12 10 8 11 14 13 12 10 9 8 8 10 11 11 11 9 9 10 10 10 10 9 8 8 9
21 19 18 16 14 14 13 14 13 12 13 14 14 14 13 12 13 12 14 16 16 16 16 15 13 12 12 11 10 10 10 11 10 10 10 10 10 9 9 9 9 9 8 7 6 6 7 8 11 12 12 11 10 10 11 11 13 13 11 11 11 10 9 11 14 13 11 10 8 8 7 9 10 11 10 9 9 9 9 10 10 9 9 9 9
20 18 17 15 14 13 12 12 11 10 11 12 13 13 14 13 13 12 14 15 15 15 15 15 13 13 12 11 10 10 11 10 10 10 10 9 9 9 8 8 8 9 8 6 5 6 7 8 9 12 11 11 11 11 11 11 12 11 10 10 10 10 10 12 14 12 10 9 8 8 6 7 8 9 9 8 8 9 9 10 9 9 9 9 9
18 17 16 15 14 13 12 11 9 9 10 11 12 12 13 13 13 13 14 15 15 15 14 14 13 13 12 11 10 10 10 10 10 9 9 9 8 8 8 8 8 9 8 6 5 6 8 7 8 11 12 11 11 12 11 10 11 10 10 9 8 9 11 13 14 12 10 9 7 7 6 6 6 7 8 7 7 8 8 8 9 9 8 9 8
17 17 16 16 15 14 13 11 9 9 10 10 11 11 12 11 13 13 13 14 14 14 13 13 13 13 11 10 10 9 9 9 9 9 9 9 8 8 8 8 8 9 8 7 7 8 9 8 9 12 13 11 11 12 11 9 10 10 9 8 8 9 12 14 14 12 10 9 6 5 5 5 5 6 7 6 6 6 6 7 8 7 7 7 7
17 16 16 15 15 14 13 11 10 10 10 10 10 11 11 11 12 13 12 12 12 13 12 13 14 12 11 10 10 10 10 10 9 9 9 9 9 8 7 7 8 9 8 8 8 8 9 10 12 13 13 11 10 11 11 9 10 11 10 8 9 10 12 14 14 13 10 8 6 5 5 5 5 5 6 5 5 5 6 6 7 6 6 6 6
18 17 15 15 14 14 14 13 12 11 10 10 10 10 11 12 12 12 12 12 11 12 12 13 15 13 11 11 10 10 10 10 10 10 10 9 9 8 7 8 9 8 7 8 8 9 9 11 13 13 13 12 10 11 10 9 10 12 11 9 9 10 11 13 13 11 10 8 6 5 5 4 4 4 5 5 5 5 5 6 6 5 5 5 6
19 18 16 15 15 15 14 14 13 12 11 11 11 10 11 12 12 12 12 12 11 11 11 12 14 13 12 11 11 11 11 10 10 10 10 10 9 7 7 8 9 8 7 7 8 9 10 11 13 13 13 13 11 10 10 9 11 13 12 10 9 10 11 12 11 10 9 7 6 5 4 4 4 4 4 5 5 5 5 6 6 5 4 5 6
20 19 17 15 14 15 14 14 13 12 11 11 11 11 12 12 12 12 11 12 10 10 10 11 11 12 13 13 12 11 10 10 9 10 10 11 10 8 8 9 9 8 7 7 8 9 10 11 12 12 12 12 12 11 9 9 11 14 14 10 9 9 10 12 10 9 8 7 6 5 4 4 4 4 4 4 5 6 6 6 6 5 4 4 4
21 20 18 16 14 14 15 14 13 12 11 12 12 12 13 12 12 12 12 12 11 10 9 9 9 11 12 12 11 9 10 10 8 9 10 11 11 11 11 11 10 9 8 8 9 10 11 12 12 12 13 12 11 11 10 8 10 14 15 12 9 8 8 11 11 8 7 6 6 6 4 3 4 4 5 5 5 7 8 7 6 5 5 4 3
20 20 19 17 15 15 16 15 14 12 11 12 12 13 14 13 13 12 12 12 11 11 9 9 9 9 10 11 11 9 9 8 8 9 11 12 13 12 12 12 11 9 9 8 8 9 10 11 11 12 12 11 10 9 9 7 7 12 14 13 10 7 6 9 11 8 7 7 6 6 3 2 4 5 6 6 5 7 8 7 7 6 5 5 4
23 23 21 19 17 15 14 13 13 12 12 13 13 15 14 13 13 12 13 13 12 12 10 10 9 9 9 10 11 10 10 9 8 9 10 13 14 14 13 11 10 9 9 8 8 9 10 11 12 11 11 11 10 9 8 8 7 10 12 11 9 7 4 6 11 10 7 7 5 5 3 2 4 6 7 7 6 8 8 7 7 6 6 6 6
24 24 22 21 19 17 15 13 11 12 13 13 14 15 14 13 12 12 13 13 13 12 10 10 9 9 10 11 12 11 10 9 9 9 10 13 14 15 14 12 10 9 9 9 9 10 11 13 13 12 12 12 12 11 8 8 10 12 11 9 8 8 5 6 11 11 8 7 6 5 4 3 4 5 7 8 7 8 8 7 6 6 5 6 7
22 20 18 17 16 15 14 13 11 11 13 12 13 13 12 12 11 12 13 13 14 12 10 10 9 9 10 11 12 11 10 9 10 10 12 13 14 15 15 13 12 10 10 10 10 11 12 13 14 13 13 13 13 13 12 9 12 14 12 9 9 8 6 7 11 12 10 8 7 6 5 4 4 5 6 7 7 7 8 8 7 7 5 5 7
20 18 16 14 12 12 11 10 12 13 14 14 13 12 11 10 10 10 11 12 13 12 10 10 9 9 9 11 11 11 9 9 10 10 13 14 15 16 16 15 14 13 11 11 11 11 12 13 13 13 13 14 14 14 14 14 14 14 14 13 11 9 7 8 10 12 11 9 8 7 7 6 5 5 5 7 8 7 8 9 9 7 5 5 5
19 17 16 15 13 12 10 10 14 16 15 15 14 13 12 11 9 8 10 11 11 11 10 9 9 8 9 10 10 11 10 10 10 11 13 15 16 17 17 16 15 15 14 14 13 13 13 12 14 14 14 14 15 15 15 17 18 15 14 15 14 12 9 10 10 11 10 9 9 9 9 8 8 7 6 7 8 8 9 10 10 8 6 6 5
19 18 16 15 14 12 11 13 16 18 17 16 14 12 11 12 10 9 10 10 8 9 11 10 8 8 9 10 10 10 10 10 11 12 13 15 17 17 17 16 17 16 15 15 15 16 15 13 13 15 15 14 15 16 17 19 22 17 15 15 15 14 13 13 12 12 10 10 11 11 11 10 10 9 9 8 8 9 10 12 11 8 8 8 6
19 18 16 15 14 13 13 14 16 17 17 16 14 13 11 10 9 9 11 10 8 7 10 10 8 7 9 10 9 9 9 9 10 12 13 15 16 16 16 17 18 18 17 17 17 19 18 15 14 15 16 15 16 16 16 21 24 19 17 16 16 16 15 15 15 14 12 11 11 11 12 12 12 11 11 11 10 10 10 12 13 10 9 9 8
20 18 16 16 15 13 13 14 15 16 16 16 15 14 12 10 9 9 10 9 8 8 8 8 8 8 9 9 7 7 8 8 9 10 12 14 14 15 15 16 17 19 20 20 19 19 19 18 17 17 17 17 18 16 16 22 26 20 18 18 17 17 17 17 16 16 15 13 12 12 12 13 13 13 13 13 12 11 10 13 15 13 11 11 10
21 19 17 15 14 13 13 15 15 14 15 14 14 13 10 10 10 9 9 9 7 7 8 7 8 8 8 7 7 7 7 7 7 9 11 13 14 14 13 12 13 17 20 21 21 20 19 19 18 18 19 17 18 16 15 21 24 20 19 19 19 18 17 18 18 18 16 15 14 13 13 14 14 14 14 14 14 13 12 13 15 15 14 13 11
22 20 17 16 14 13 14 15 15 14 14 13 13 12 9 11 12 9 9 9 8 7 8 8 8 8 7 7 7 7 7 7 6 7 8 10 12 12 12 10 10 13 18 20 21 21 20 18 15 15 17 17 16 12 12 19 19 16 18 18 19 19 18 18 18 19 18 16 16 15 15 15 14 15 16 15 14 14 13 14 15 16 16 15 13
23 22 20 18 16 14 13 15 16 15 15 15 13 11 9 13 13 10 10 10 8 7 9 11 10 9 8 7 7 7 7 7 7 6 6 7 9 11 12 11 8 9 13 17 18 19 19 16 12 12 15 17 15 11 11 17 18 16 16 16 16 17 19 18 17 18 19 18 17 17 16 16 16 16 17 17 16 15 15 15 15 15 16 17 15
25 23 22 21 19 16 15 16 16 16 17 16 15 14 14 15 13 10 10 10 10 10 12 13 12 10 8 6 7 7 6 6 7 7 6 6 6 8 11 11 9 8 10 13 16 17 16 13 12 13 16 18 17 14 12 14 18 18 17 17 15 15 18 19 18 17 19 20 19 18 18 17 17 17 18 18 17 16 16 16 16 16 17 18 18
26 24 24 23 20 19 20 20 18 18 18 17 17 17 17 16 14 12 10 10 11 13 14 15 13 10 8 7 6 7 6 5 6 5 5 5 5 5 8 9 7 7 7 9 12 13 14 14 16 17 18 19 18 17 11 10 15 18 18 18 17 16 17 18 19 18 19 21 21 20 19 18 18 18 19 19 19 18 17 17 17 17 17 18 19
28 26 26 24 23 24 23 23 22 20 20 19 18 16 15 15 15 14 12 11 11 11 13 13 12 10 8 8 7 7 7 5 5 4 4 4 4 4 6 5 2 2 4 7 10 11 12 15 18 19 18 18 19 20 14 9 11 15 16 16 17 17 18 19 20 20 21 21 21 21 21 20 19 19 20 21 21 21 19 19 18 18 17 18 20
29 29 29 26 26 26 25 24 24 23 21 20 17 16 15 15 15 14 13 11 10 9 9 9 8 7 7 7 6 6 6 5 5 4 3 3 3 3 4 4 1 1 1 4 7 9 11 13 15 16 15 17 19 20 18 13 10 11 11 12 14 17 20 21 21 21 22 22 22 22 22 21 21 20 21 21 22 23 22 21 20 20 18 18 20
32 32 31 29 27 27 25 25 25 24 22 20 18 17 15 16 18 17 14 12 10 9 10 8 7 6 7 7 5 4 4 4 4 3 3 2 2 2 1 0 1 3 3 2 3 6 9 12 15 14 13 14 16 17 17 14 11 10 8 7 8 12 18 23 24 23 23 24 24 23 23 23 23 22 21 22 23 25 25 24 23 22 21 20 20
35 34 32 30 29 28 26 25 25 24 22 20 18 17 16 18 19 17 15 13 11 10 10 9 6 6 7 7 5 4 3 4 3 3 3 2 2 3 3 3 5 5 5 3 3 3 5 8 11 12 13 13 14 16 17 14 13 10 5 3 4 4 8 16 22 25 25 25 25 25 24 24 25 24 23 24 25 26 26 26 26 25 23 22 21
34 34 33 33 31 30 27 26 25 24 22 19 18 17 18 20 18 15 15 14 11 10 10 9 6 5 6 6 5 4 3 4 5 5 5 3 2 2 1 2 4 5 5 5 4 4 5 6 7 8 10 13 15 16 17 15 15 12 4 1 1 1 3 7 14 23 27 27 26 26 26 25 25 25 24 25 26 27 27 28 28 28 26 24 23
34 35 36 35 34 32 29 26 25 23 21 20 21 22 21 21 19 17 15 14 12 11 11 10 9 7 6 6 4 2 2 4 6 5 4 4 2 1 1 1 1 3 4 5 5 5 5 6 7 7 7 10 13 15 17 15 16 17 10 3 1 1 3 3 4 13 22 26 28 29 28 27 26 26 27 27 27 27 27 28 28 29 29 27 25
34 37 38 36 35 34 30 27 25 22 21 23 25 24 22 21 21 19 17 17 15 13 12 12 12 10 7 6 5 3 4 5 6 6 4 3 2 1 2 2 2 1 1 3 4 4 4 6 7 7 7 7 10 13 15 15 15 17 17 13 8 4 2 1 2 4 10 17 24 27 29 30 29 28 28 29 29 29 28 27 28 30 31 29 28
36 37 37 36 35 34 31 28 25 23 24 25 25 23 21 20 19 19 20 20 18 15 13 12 12 11 8 7 5 5 5 5 5 6 5 3 3 2 1 1 2 2 2 1 1 3 3 5 6 7 7 7 7 10 12 14 15 15 16 19 18 13 9 5 2 1 3 7 14 19 23 28 30 30 30 30 30 31 30 28 28 30 32 31 29
35 35 36 36 36 34 32 29 27 26 26 25 24 21 20 19 18 20 21 20 18 16 14 13 11 10 9 8 6 6 6 5 6 6 5 4 3 2 2 2 2 2 2 2 3 4 5 4 5 6 7 8 8 8 11 12 12 14 14 17 19 19 19 17 13 8 2 2 6 9 14 18 22 27 30 31 31 31 31 30 29 30 32 32 30
33 36 38 37 36 35 33 31 29 29 27 26 24 22 20 19 19 21 21 19 18 17 15 14 12 10 10 9 8 6 6 6 6 5 5 4 3 2 2 2 2 2 3 3 4 5 6 6 7 7 7 8 8 8 10 11 12 14 14 16 17 17 19 20 21 17 9 6 4 4 8 9 12 17 22 26 30 31 31 30 29 31 32 32 31
34 37 37 35 35 35 33 33 32 31 29 26 24 23 21 20 21 22 21 21 20 18 16 15 13 11 10 10 9 8 7 6 5 5 4 3 2 1 1 2 2 2 2 3 4 4 6 7 8 9 9 10 10 10 10 11 12 13 14 15 16 15 14 12 14 16 13 10 7 5 8 8 7 11 14 16 20 26 30 31 31 31 33 33 31
32 33 32 33 35 36 35 35 34 33 30 27 26 25 23 21 22 22 21 23 22 20 19 17 15 13 11 10 10 10 8 7 7 6 5 4 4 3 3 3 3 3 4 5 5 6 7 9 10 11 11 11 12 12 12 12 12 13 13 14 15 15 14 12 13 15 12 9 7 6 10 12 11 14 18 16 16 17 21 26 30 32 33 32 31
Wind_Direction
156 150 148 151 143 136 134 136 137 139 138 138 137 137 138 140 142 140 137 134 133 126 121 121 122 122 116 113 113 112 113 113 113 112 110 109 109 109 108 107 107 104 102 100 100 102 102 102 103 108 113 117 119 119 119 118 117 117 118 117 116 115 113 109 105 105 105 100 100 105 103 99 96 94 93 95 97 95 92 89 88 87 85 84 82
154 152 153 155 147 141 139 138 140 141 142 142 140 141 142 144 146 143 141 138 137 131 125 125 125 125 120 116 117 117 115 115 116 115 113 112 112 110 109 108 106 104 102 102 102 104 104 101 102 109 114 118 121 121 121 120 120 120 120 119 119 119 118 116 112 109 109 103 99 101 102 100 99 97 94 94 93 90 89 88 87 87 87 87 85
152 154 155 154 150 145 142 141 142 143 144 145 143 145 146 148 149 146 145 143 142 135 130 129 128 127 122 119 121 122 119 119 119 119 118 115 114 112 112 111 109 106 105 105 104 106 106 102 101 107 113 117 119 119 120 119 118 118 117 118 120 118 116 116 117 117 114 107 103 102 102 101 98 95 94 94 93 90 88 86 86 85 86 85 83
154 152 154 152 151 148 144 145 145 146 145 146 145 147 150 151 152 151 148 148 146 139 134 132 131 129 124 121 123 125 122 122 123 123 122 119 117 117 116 115 114 110 109 108 106 107 109 106 102 104 111 116 117 118 118 117 115 115 114 116 116 111 111 116 120 123 117 112 110 107 105 104 99 97 96 95 96 94 91 88 86 85 86 84 82
153 151 153 152 151 151 148 147 147 148 146 149 151 151 153 154 154 155 153 152 150 143 137 135 134 131 126 123 126 127 124 124 125 126 123 121 119 119 120 118 117 111 110 110 106 108 112 110 101 102 110 115 117 118 118 116 115 115 114 114 111 106 109 114 117 121 120 118 116 111 106 104 102 100 98 97 97 96 95 93 90 89 88 85 84
152 150 152 152 151 151 150 148 147 147 145 153 159 157 156 156 156 157 157 155 154 148 141 139 137 134 130 126 129 128 124 125 126 126 124 122 119 119 120 120 118 113 111 109 107 108 113 112 102 104 111 115 118 119 120 119 118 117 115 114 108 102 105 108 108 111 115 118 115 110 105 103 103 102 101 100 98 97 96 95 92 91 90 89 86
152 152 153 152 149 149 152 149 145 144 142 152 162 162 159 159 158 159 160 159 159 154 147 145 142 136 131 129 132 131 126 127 129 126 123 123 122 120 121 122 122 119 114 110 109 108 114 116 105 107 115 118 121 123 124 124 123 122 119 118 113 104 101 103 103 104 107 114 113 110 109 109 109 108 107 104 101 99 98 97 96 93 91 91 88
152 155 154 151 147 148 152 149 144 142 141 149 160 164 164 164 161 162 163 162 163 159 153 149 149 140 132 131 133 135 131 130 134 129 123 123 125 124 125 126 127 124 119 115 113 111 116 120 110 111 119 122 124 127 127 127 128 128 126 125 123 115 106 106 107 104 104 114 116 114 116 115 114 112 109 107 107 104 103 104 103 99 95 94 92
156 156 153 149 144 146 149 146 143 141 143 148 158 166 168 168 165 165 166 166 166 163 156 152 154 143 132 131 132 136 135 135 138 133 125 124 127 128 130 131 132 128 124 119 117 114 118 122 114 114 122 125 128 130 129 129 130 131 131 129 129 125 115 115 119 112 107 116 118 116 118 118 116 114 114 116 116 113 108 108 103 98 95 94 92
158 155 152 146 141 146 145 142 141 140 143 147 156 165 169 169 169 169 171 170 168 166 159 154 156 146 135 134 134 134 136 138 139 136 129 127 129 131 133 134 134 132 129 122 120 119 119 123 118 116 122 129 131 132 132 130 131 132 130 128 127 122 118 128 131 122 115 115 113 114 121 121 119 119 122 120 119 121 112 106 103 100 99 96 94
158 155 151 145 142 145 142 140 140 139 141 145 152 162 167 169 173 174 174 173 169 167 162 158 157 149 139 137 138 135 137 140 140 139 133 131 131 133 135 135 136 135 131 124 122 120 120 126 125 120 121 134 139 136 135 132 131 131 127 122 115 101 115 142 140 130 123 114 106 110 124 128 123 121 124 122 122 127 119 110 106 103 101 98 94
156 155 151 146 143 142 141 139 138 137 137 140 147 156 164 168 174 177 176 175 170 167 164 161 158 151 145 143 143 140 140 141 143 143 138 137 135 136 136 137 138 134 131 125 123 119 122 130 129 125 122 134 147 146 143 140 138 136 129 116 102 93 121 147 146 136 128 116 107 110 130 135 125 120 121 122 123 125 120 111 106 103 100 97 93
155 156 153 147 141 142 142 140 139 136 134 135 141 148 158 165 170 175 177 176 169 165 164 164 160 154 150 147 148 145 143 143 145 147 142 142 140 139 136 138 138 134 135 127 124 122 127 134 133 132 126 131 146 149 149 148 149 146 136 118 102 104 131 149 151 142 131 119 111 114 134 137 128 124 124 121 119 118 115 111 108 106 102 98 94
156 156 151 145 139 142 143 140 138 134 132 131 133 139 149 160 166 172 176 175 166 163 165 164 162 157 154 150 150 148 146 146 147 150 144 146 146 145 142 141 139 136 135 127 125 127 130 137 138 138 131 133 143 148 150 150 152 148 137 120 107 109 132 151 153 146 136 124 116 119 134 141 136 130 128 125 122 119 116 116 114 110 105 101 96
156 154 151 146 140 141 141 138 134 131 130 129 131 134 141 152 163 170 174 177 167 163 166 165 163 160 157 152 152 151 150 147 147 151 146 147 149 149 149 146 142 138 134 125 124 131 134 135 136 139 136 135 143 147 150 151 151 144 133 120 110 107 130 157 158 150 141 132 122 122 137 149 144 132 130 132 132 126 121 120 116 114 110 106 101
157 156 154 150 145 143 140 135 131 128 127 130 133 133 138 148 159 168 173 178 172 168 170 168 165 160 159 156 154 154 152 148 148 153 146 145 147 151 153 148 145 140 135 127 124 133 139 133 132 139 138 136 144 148 150 153 149 142 131 118 104 97 127 165 165 154 144 136 126 124 140 152 146 136 136 138 140 136 128 122 119 118 112 110 107
157 159 158 155 154 149 143 137 132 128 129 130 132 135 140 149 156 163 170 176 175 173 173 170 168 162 162 160 157 157 156 152 153 156 148 146 149 152 151 149 149 143 140 134 131 140 143 138 132 138 141 139 147 154 154 156 152 146 132 115 95 89 127 163 165 158 147 136 126 122 135 148 146 142 141 140 139 134 128 124 124 121 114 114 112
158 162 161 160 160 156 149 141 137 134 136 136 135 138 142 149 154 158 165 174 177 174 173 172 171 166 166 163 160 162 162 159 160 159 150 151 154 151 148 153 159 150 146 147 145 151 149 145 137 139 145 147 153 162 165 163 160 152 136 117 88 85 127 158 163 159 149 134 122 117 124 141 147 145 142 143 141 133 132 134 132 126 118 117 114
159 164 165 164 163 160 156 149 147 144 145 145 142 142 143 148 151 155 162 172 176 173 173 175 175 171 169 166 164 167 166 164 166 163 156 160 157 152 151 155 168 161 155 160 160 157 152 148 143 141 146 152 157 168 175 172 170 162 143 122 82 86 127 152 161 159 149 136 122 113 116 138 147 143 144 150 147 140 140 140 135 129 124 120 117
160 167 166 166 165 164 163 157 154 152 152 150 149 149 148 150 153 156 162 172 175 172 176 180 179 176 172 171 170 169 167 168 170 167 164 167 160 156 154 152 172 174 163 163 161 157 152 148 145 144 148 154 156 167 179 177 177 171 152 127 78 91 132 150 160 157 149 139 124 111 112 132 144 145 157 165 155 151 148 140 136 133 131 127 125
158 163 164 164 164 166 166 157 150 153 158 158 157 154 155 160 161 161 164 171 175 177 184 185 182 179 178 178 177 175 171 172 175 172 169 171 166 159 152 150 170 177 167 161 160 159 154 149 148 147 148 152 153 162 176 179 179 176 158 128 81 92 133 152 158 154 149 142 126 113 114 131 146 154 172 179 163 164 161 145 142 138 133 130 132
158 159 159 158 159 162 162 155 147 149 156 161 164 161 164 168 167 167 168 170 173 179 185 187 186 183 183 185 182 180 177 177 179 178 174 172 169 163 153 151 165 174 168 161 160 161 157 151 151 153 151 154 158 159 169 174 179 180 162 133 94 94 130 151 157 156 152 144 129 116 117 135 154 168 186 183 172 175 168 151 152 148 139 133 134
163 163 161 156 154 156 159 158 152 151 153 156 163 170 174 174 173 172 169 168 173 176 177 184 189 186 184 187 186 182 180 183 186 185 180 172 168 168 163 156 162 169 167 160 158 159 158 156 155 157 155 156 159 159 168 172 176 183 171 145 113 108 135 154 161 163 157 146 135 121 123 147 165 177 192 191 184 182 170 162 166 163 150 141 135
170 166 163 161 157 155 159 158 155 158 156 156 164 175 179 177 176 175 171 168 171 174 174 179 187 189 186 186 185 176 176 182 189 192 188 179 170 171 170 164 165 164 163 159 155 157 159 161 161 160 159 160 158 151 155 165 175 185 182 162 132 122 142 160 167 168 164 153 141 132 132 155 176 189 201 202 190 181 180 178 178 180 168 156 142
168 167 165 166 161 156 160 159 160 164 162 162 166 176 178 175 176 176 175 172 170 175 178 178 184 191 186 182 181 173 178 183 190 194 194 189 178 174 172 169 171 162 157 157 157 159 161 165 167 165 163 164 162 146 134 144 168 185 193 182 152 135 144 162 171 170 171 163 148 145 143 156 190 211 214 215 202 192 196 191 186 193 179 172 159
145 156 162 165 162 155 158 159 161 166 166 166 167 173 173 171 176 177 178 177 174 174 177 181 186 192 183 182 186 184 189 191 192 190 192 193 183 176 174 174 175 163 154 158 162 161 161 168 175 175 171 170 171 157 134 128 159 182 195 191 169 153 147 165 177 178 182 174 158 153 153 169 207 224 222 227 221 203 205 194 190 200 182 175 180
122 134 140 145 149 148 151 154 157 163 164 166 169 173 172 172 175 176 180 181 181 180 181 183 188 195 194 196 196 194 198 197 195 190 187 190 186 180 177 178 178 168 158 160 166 164 163 172 182 185 185 184 183 178 150 130 144 164 177 180 174 173 172 183 188 189 189 183 173 168 169 186 212 225 227 235 227 205 206 203 201 209 195 180 184
118 122 126 129 132 132 134 134 142 157 160 164 169 172 175 178 178 178 182 184 187 188 187 187 190 197 202 204 203 204 209 204 199 195 184 183 188 187 182 181 184 178 167 167 174 172 169 175 185 191 195 198 199 202 188 154 148 153 160 168 174 184 201 205 194 190 192 194 197 192 188 195 218 230 231 234 227 205 201 209 211 215 219 202 200
121 121 125 128 131 132 130 121 125 145 149 156 165 168 173 178 181 183 185 187 192 194 191 192 193 198 202 204 207 211 215 208 199 191 185 186 190 191 187 184 188 188 179 179 186 188 185 183 189 197 203 209 215 220 221 200 168 164 170 173 174 182 207 210 193 193 200 206 210 210 206 209 222 232 231 226 225 215 202 205 210 212 230 231 219
125 125 128 131 136 141 139 123 122 136 140 142 150 152 155 160 170 178 180 183 191 196 195 195 197 200 201 201 202 203 206 206 200 189 186 191 191 190 191 190 193 195 191 192 197 205 204 199 201 208 214 221 228 232 237 225 194 178 179 181 177 177 203 210 194 200 211 214 217 219 219 221 222 226 229 223 225 228 214 208 218 225 233 246 235
130 129 130 134 137 140 138 127 129 137 138 136 137 135 132 130 134 150 166 176 186 188 186 189 195 198 200 201 202 200 202 204 205 198 192 195 194 192 196 199 201 200 198 199 203 214 218 217 218 223 228 236 244 249 250 230 202 186 184 185 184 179 193 205 197 201 213 222 226 226 224 223 220 222 224 225 226 229 224 213 222 239 229 232 238
136 135 135 139 140 140 133 129 134 139 139 136 135 132 128 120 113 117 135 150 165 178 181 180 179 183 193 202 201 196 200 203 205 203 197 197 198 198 201 204 208 208 206 204 206 216 223 226 231 237 239 246 255 257 257 231 203 192 192 189 188 188 195 204 203 203 212 225 228 227 229 227 221 221 222 227 227 226 228 214 219 243 226 221 231
138 140 143 143 143 146 138 132 136 137 137 138 136 132 126 119 119 121 119 113 111 139 170 179 175 168 177 185 186 183 185 195 205 207 202 201 201 202 204 208 213 215 213 211 211 215 222 226 235 246 246 254 259 261 263 232 207 199 199 195 194 197 202 207 210 208 212 223 225 225 231 232 224 220 221 225 229 229 231 216 219 237 223 222 227
140 144 148 144 144 152 147 140 140 138 134 136 136 131 126 123 128 134 128 113 99 101 123 159 174 171 169 162 152 158 168 183 201 206 204 202 203 203 204 208 213 217 217 216 217 218 223 227 233 245 249 257 256 263 268 230 211 207 205 202 201 204 207 209 215 216 216 219 221 224 226 230 227 222 222 222 227 232 232 222 225 236 228 230 234
147 150 152 147 147 155 156 149 145 144 139 139 140 134 133 135 134 137 137 129 120 112 110 136 168 177 180 164 139 136 153 176 194 202 204 204 207 209 208 209 209 213 217 219 222 222 223 227 235 245 249 252 248 259 259 220 208 209 209 210 209 209 212 211 216 222 223 221 220 222 220 224 228 227 225 221 224 228 229 227 229 237 233 232 239
155 156 155 150 148 153 160 155 148 149 147 144 145 145 149 146 135 125 131 138 139 140 135 140 154 156 153 151 145 138 149 165 171 183 199 206 212 214 212 212 209 211 214 216 221 222 223 226 236 246 247 245 242 251 238 209 201 202 203 209 211 211 216 216 218 222 226 226 225 225 220 220 227 230 229 225 225 224 224 229 231 237 234 231 235
162 162 160 155 151 152 159 161 157 156 151 144 141 142 149 147 137 118 119 131 127 130 144 146 144 138 132 139 151 155 160 160 151 156 179 201 212 215 209 203 202 210 216 215 215 219 222 224 231 240 242 241 240 240 229 212 206 205 207 211 213 212 216 218 220 223 227 230 230 229 225 224 227 230 230 228 228 224 221 226 230 236 237 234 231
167 166 165 160 156 156 156 159 162 164 158 147 133 126 130 137 136 123 120 120 103 107 135 145 143 139 139 143 152 158 160 152 143 143 154 173 187 202 203 196 193 200 214 216 214 220 223 224 231 236 236 237 237 235 234 226 216 214 217 220 220 218 218 218 219 222 227 231 234 233 232 230 229 229 230 229 229 227 223 223 226 232 235 236 233
166 167 167 163 159 156 152 150 153 160 160 150 136 131 132 135 132 124 126 123 108 111 129 141 145 146 147 147 147 145 151 161 157 156 160 166 163 179 193 189 187 194 206 210 212 222 225 224 227 229 230 232 234 234 240 245 228 222 223 222 222 226 228 223 218 220 225 230 236 237 236 233 232 232 233 233 232 230 226 224 225 228 232 233 234
167 168 167 165 161 156 154 151 150 152 156 153 149 148 147 147 141 130 128 130 121 119 128 138 145 149 152 156 155 141 138 148 149 163 189 204 212 222 220 211 173 170 217 212 208 219 222 222 225 227 229 232 234 231 233 250 232 218 219 219 220 228 236 234 225 222 225 228 232 238 239 236 235 236 238 238 236 233 230 228 227 229 234 233 234
168 170 169 169 166 160 159 158 155 155 158 161 164 165 164 162 158 146 136 133 128 123 126 134 139 145 155 161 168 164 157 153 146 151 170 202 219 234 251 255 258 84 296 252 231 231 228 227 231 230 229 234 238 233 232 248 242 211 208 221 226 230 235 236 232 230 230 229 227 233 239 240 238 239 242 242 239 236 233 232 230 232 235 235 234
170 172 172 172 170 167 165 162 161 162 162 167 171 174 178 173 165 159 149 136 129 125 124 124 118 124 150 154 156 174 176 169 165 161 162 177 168 131 108 25 94 115 90 7 290 259 248 242 242 237 230 237 244 241 237 241 247 231 211 224 241 239 236 233 234 237 239 236 229 228 234 240 242 242 243 244 242 240 238 236 233 233 236 236 236
172 174 175 174 174 174 171 168 167 166 165 169 174 179 181 172 164 160 152 141 133 132 129 128 120 116 136 145 145 155 162 169 163 130 130 140 119 107 96 79 74 87 87 51 11 328 295 272 263 254 243 244 246 245 240 230 237 239 206 207 240 238 241 236 234 238 240 241 237 233 233 236 241 244 245 244 244 243 242 240 237 236 237 237 237
173 176 177 176 178 179 177 175 174 171 169 174 180 180 174 165 160 155 151 146 142 140 136 139 146 139 137 146 156 167 176 175 162 134 123 127 113 105 110 84 70 70 68 59 43 15 352 335 313 290 266 257 254 252 247 236 236 235 203 185 213 153 249 242 236 238 239 242 243 239 237 236 237 241 244 246 246 246 245 243 242 241 240 239 240
176 179 180 180 182 183 181 179 178 176 173 174 176 173 166 159 154 150 150 151 150 152 155 157 163 166 162 167 177 184 166 162 169 165 142 133 121 139 213 237 50 57 55 54 48 32 9 357 345 328 301 275 269 267 263 255 246 238 225 211 106 152 250 224 230 245 240 240 242 241 239 238 237 237 241 245 247 247 246 245 246 245 243 242 243
182 182 183 185 185 185 184 182 180 179 176 172 172 171 166 161 159 158 157 159 162 168 172 169 171 175 177 181 182 155 133 143 172 187 179 161 148 150 217 231 234 251 22 41 42 46 30 14 7 350 332 306 288 283 281 282 275 257 242 237 234 239 269 181 167 260 251 243 243 243 242 241 240 239 239 242 244 245 247 248 249 248 244 243 244
186 185 185 187 188 187 186 186 182 180 178 174 176 177 173 171 173 174 172 170 169 174 178 173 172 178 182 183 172 147 128 117 137 157 159 161 163 165 207 227 226 250 271 300 359 20 20 14 13 7 1 346 315 292 293 302 298 282 263 254 252 251 261 265 230 269 278 248 243 244 246 244 241 241 241 242 242 244 246 249 251 250 245 243 244
186 184 186 189 190 189 187 187 186 183 181 180 185 188 184 183 183 182 181 180 175 172 177 176 171 175 177 177 171 159 149 131 125 134 145 165 187 204 231 242 244 262 271 274 296 322 334 334 339 348 354 0 352 318 304 308 301 293 288 278 271 265 262 260 258 263 269 256 257 250 250 248 244 243 243 243 243 243 245 247 249 248 245 243 243
185 185 189 191 191 191 189 188 188 187 185 186 190 193 191 188 185 183 183 185 180 173 176 177 172 170 170 171 171 171 171 158 145 141 149 170 195 218 247 262 269 284 283 289 294 299 311 314 317 323 326 335 344 337 323 315 304 299 296 291 286 280 272 263 256 253 244 243 266 261 254 256 253 249 245 244 243 243 244 247 249 248 244 243 244
187 188 190 190 191 191 190 191 191 190 189 190 193 193 192 190 187 185 185 185 181 175 177 178 174 173 172 172 173 178 184 181 175 166 162 168 165 146 85 65 43 5 342 328 316 303 304 306 308 311 314 314 315 322 327 324 319 311 300 290 283 277 274 266 253 246 239 239 247 256 261 261 261 261 256 250 249 247 245 246 247 246 243 243 245
189 188 188 189 190 191 192 194 194 193 191 192 193 193 193 193 191 190 191 190 186 181 179 179 178 177 179 178 177 179 181 187 191 189 188 187 169 143 110 83 50 15 357 344 332 321 312 306 306 305 308 311 309 310 312 314 319 319 314 302 288 277 267 260 255 248 239 235 244 258 260 260 263 265 264 264 265 262 255 249 245 242 240 242 247